Graham, TX

12:16 AM CDT on August 21, 2017 (GMT -0500)
Graham

Weather History for KRPH - September, 2013

Change the Weather History Date:

Wednesday, September 18, 2013

  Actual Average (KMWL) Record (KMWL)
Temperature  
Mean Temperature 86 °F -  
Max Temperature 97 °F 86 °F 99 °F (2005)
Min Temperature 76 °F 64 °F 55 °F (2000)
Cooling Degree Days 21    
Growing Degree Days 36 (Base 50)    
Moisture  
Dew Point 60 °F    
Average Humidity 47    
Maximum Humidity 71    
Minimum Humidity 21    
Precipitation  
Precipitation 0.00 in - - ()
Sea Level Pressure  
Sea Level Pressure 29.95 in    
Wind  
Wind Speed 5 mph (SSE)    
Max Wind Speed 14 mph    
Max Gust Speed 21 mph    
Visibility 10 miles    
Events      
Averages and records for this station are not official NWS values.
T = Trace of Precipitation, MM = Missing Value Source: NWS Daily Summary

Daily Weather History Graph

Daily Weather History Graph

Search for Another Location

Airport or City:

Trip Planner

Search our weather history database for the weather conditions in past years. The results will help you decide how hot, cold, wet, or windy it might be!

Date:

Astronomy

Sep. 18, 2013 Rise Set
Actual Time 7:19 AM CDT 7:35 PM CDT
Civil Twilight 6:55 AM CDT 8:00 PM CDT
Nautical Twilight 6:26 AM CDT 8:29 PM CDT
Astronomical Twilight 5:56 AM CDT 8:58 PM CDT
Moon 7:00 PM CDT (9/18) 6:24 AM CDT (9/18)
Length of Visible Light 13h 05m
Length of Day
12h 16m
Waxing Gibbous, 99% of the Moon is Illuminated
Sep 18
Waxing Gibbous
Sep 19
Full
Sep 26
Last Quarter
Oct 4
New
Oct 11
First Quarter

Hourly Weather History & Observations

Time (CDT) Temp. Heat Index Dew Point Humidity Pressure Visibility Wind Dir Wind Speed Gust Speed Precip Events Conditions
12:15 AM 79.5 °F - 63.9 °F 59% 29.99 in 10.0 mi SE 4.6 mph - N/A   Clear
12:35 AM 80.6 °F 82.0 °F 63.7 °F 56% 29.99 in 10.0 mi SE 6.9 mph - N/A   Clear
12:55 AM 80.4 °F 82.0 °F 63.9 °F 57% 29.98 in 10.0 mi SE 5.8 mph - N/A   Clear
1:15 AM 79.9 °F - 64.4 °F 59% 29.98 in 10.0 mi SE 5.8 mph - N/A   Clear
1:35 AM 79.9 °F - 64.6 °F 59% 29.98 in 10.0 mi SSE 3.5 mph - N/A   Clear
1:55 AM 79.7 °F - 64.6 °F 60% 29.98 in 10.0 mi SE 3.5 mph - N/A   Clear
2:15 AM 79.3 °F - 64.8 °F 61% 29.98 in 10.0 mi Calm Calm - N/A   Clear
2:35 AM 79.0 °F - 64.8 °F 62% 29.98 in 10.0 mi Calm Calm - N/A   Clear
2:55 AM 78.3 °F - 65.3 °F 64% 29.98 in 10.0 mi SE 3.5 mph - N/A   Clear
3:15 AM 77.9 °F - 65.5 °F 65% 29.97 in 10.0 mi Calm Calm - N/A   Clear
3:35 AM 78.3 °F - 65.1 °F 64% 29.97 in 10.0 mi SSE 4.6 mph - N/A   Clear
3:55 AM 78.8 °F - 64.9 °F 62% 29.96 in 10.0 mi South 4.6 mph - N/A   Clear
4:15 AM 78.8 °F - 65.1 °F 63% 29.96 in 10.0 mi SSE 4.6 mph - N/A   Clear
4:35 AM 78.8 °F - 65.3 °F 63% 29.96 in 10.0 mi South 3.5 mph - N/A   Clear
4:55 AM 78.4 °F - 65.3 °F 64% 29.96 in 10.0 mi South 5.8 mph - N/A   Clear
5:15 AM 78.4 °F - 65.5 °F 64% 29.96 in 10.0 mi SSE 4.6 mph - N/A   Clear
5:35 AM 78.4 °F - 65.7 °F 65% 29.96 in 10.0 mi South 4.6 mph - N/A   Clear
5:55 AM 78.3 °F - 65.8 °F 65% 29.96 in 10.0 mi South 4.6 mph - N/A   Clear
6:15 AM 77.9 °F - 66.2 °F 67% 29.97 in 10.0 mi South 3.5 mph - N/A   Clear
6:35 AM 77.4 °F - 66.2 °F 68% 29.97 in 10.0 mi Calm Calm - N/A   Clear
6:55 AM 77.2 °F - 66.2 °F 69% 29.97 in 10.0 mi SSE 3.5 mph - N/A   Clear
7:15 AM 76.5 °F - 66.2 °F 70% 29.98 in 10.0 mi SSE 3.5 mph - N/A   Clear
7:35 AM 76.3 °F - 66.4 °F 71% 29.98 in 10.0 mi Calm Calm - N/A   Clear
7:55 AM 76.6 °F - 66.7 °F 71% 29.99 in 10.0 mi Calm Calm - N/A   Clear
8:15 AM 77.0 °F - 67.1 °F 71% 30.00 in 10.0 mi Calm Calm - N/A   Clear
8:35 AM 77.7 °F - 67.3 °F 70% 30.00 in 10.0 mi South 3.5 mph - N/A   Clear
8:55 AM 78.3 °F - 67.3 °F 69% 30.00 in 10.0 mi South 3.5 mph - N/A   Clear
9:15 AM 79.2 °F - 68.0 °F 69% 30.01 in 10.0 mi South 4.6 mph - N/A   Clear
9:35 AM 79.7 °F - 68.0 °F 67% 30.01 in 10.0 mi SSW 5.8 mph - N/A   Clear
9:55 AM 81.0 °F 83.8 °F 68.0 °F 65% 30.01 in 10.0 mi South 6.9 mph - N/A   Clear
10:15 AM 82.0 °F 85.1 °F 68.2 °F 63% 30.02 in 10.0 mi SSW 6.9 mph - N/A   Clear
10:35 AM 84.0 °F 86.5 °F 66.7 °F 56% 30.02 in 10.0 mi SSW 5.8 mph - N/A   Clear
10:55 AM 86.0 °F 87.9 °F 65.1 °F 50% 30.01 in 10.0 mi SSW 9.2 mph - N/A   Clear
11:15 AM 88.3 °F 89.5 °F 63.7 °F 44% 30.01 in 10.0 mi SSE 10.4 mph 17.3 mph N/A   Clear
11:35 AM 88.2 °F 89.0 °F 63.1 °F 43% 30.01 in 10.0 mi SSE 9.2 mph - N/A   Clear
11:55 AM 90.1 °F 90.9 °F 62.6 °F 40% 30.00 in 10.0 mi SE 6.9 mph 16.1 mph N/A   Clear
12:15 PM 89.6 °F 88.9 °F 59.7 °F 36% 30.00 in 10.0 mi South 9.2 mph 19.6 mph N/A   Scattered Clouds
12:35 PM 90.9 °F 90.3 °F 60.1 °F 35% 29.99 in 10.0 mi SSE 10.4 mph 18.4 mph N/A   Clear
12:55 PM 91.9 °F 90.6 °F 57.0 °F 31% 29.98 in 10.0 mi SSE 13.8 mph 20.7 mph N/A   Clear
1:15 PM 91.8 °F 90.3 °F 56.7 °F 31% 29.97 in 10.0 mi South 9.2 mph 16.1 mph N/A   Clear
1:35 PM 93.0 °F 91.7 °F 57.2 °F 30% 29.96 in 10.0 mi South 9.2 mph 19.6 mph N/A   Clear
1:55 PM 93.4 °F 91.3 °F 55.0 °F 27% 29.96 in 10.0 mi SSE 13.8 mph 19.6 mph N/A   Clear
2:15 PM 94.1 °F 92.5 °F 56.5 °F 28% 29.95 in 10.0 mi South 10.4 mph 19.6 mph N/A   Clear
2:35 PM 94.1 °F 92.2 °F 55.2 °F 27% 29.93 in 10.0 mi SE 9.2 mph 19.6 mph N/A   Clear
2:55 PM 94.5 °F 93.3 °F 57.2 °F 29% 29.93 in 10.0 mi SE 9.2 mph 18.4 mph N/A   Clear
3:15 PM 94.8 °F 93.8 °F 57.9 °F 29% 29.92 in 10.0 mi South 9.2 mph 19.6 mph N/A   Scattered Clouds
3:35 PM 96.4 °F 94.6 °F 55.8 °F 25% 29.90 in 10.0 mi SSE 5.8 mph - N/A   Scattered Clouds
3:55 PM 95.2 °F 93.0 °F 54.7 °F 25% 29.89 in 10.0 mi SE 6.9 mph - N/A   Scattered Clouds
4:15 PM 96.1 °F 93.8 °F 53.4 °F 24% 29.89 in 10.0 mi South 8.1 mph 18.4 mph N/A   Scattered Clouds
4:35 PM 96.4 °F - 52.0 °F 22% 29.88 in 10.0 mi South 9.2 mph 17.3 mph N/A   Scattered Clouds
4:55 PM 95.9 °F - 50.4 °F 21% 29.87 in 10.0 mi SSE 9.2 mph 20.7 mph N/A   Scattered Clouds
5:15 PM 96.1 °F - 50.9 °F 22% 29.87 in 10.0 mi SE 9.2 mph 17.3 mph N/A   Clear
5:35 PM 95.0 °F - 52.9 °F 24% 29.86 in 10.0 mi SSE 8.1 mph - N/A   Scattered Clouds
5:55 PM 95.0 °F - 52.3 °F 24% 29.86 in 10.0 mi SE 10.4 mph 18.4 mph N/A   Scattered Clouds
6:15 PM 94.6 °F - 51.6 °F 23% 29.86 in 10.0 mi SSE 9.2 mph 16.1 mph N/A   Scattered Clouds
6:35 PM 93.6 °F - 51.8 °F 24% 29.86 in 10.0 mi ESE 10.4 mph 19.6 mph N/A   Scattered Clouds
6:55 PM 92.5 °F - 50.5 °F 24% 29.86 in 10.0 mi SE 8.1 mph - N/A   Clear
7:15 PM 91.8 °F - 50.0 °F 24% 29.86 in 10.0 mi SE 6.9 mph - N/A   Clear
7:35 PM 90.0 °F - 51.8 °F 27% 29.86 in 10.0 mi SSE 5.8 mph - N/A   Clear
7:55 PM 88.0 °F - 52.5 °F 30% 29.86 in 10.0 mi SE 4.6 mph - N/A   Clear
8:15 PM 86.5 °F - 52.7 °F 31% 29.87 in 10.0 mi SE 4.6 mph - N/A   Clear
8:35 PM 85.5 °F - 52.7 °F 32% 29.88 in 10.0 mi SE 4.6 mph - N/A   Clear
8:55 PM 84.6 °F 83.0 °F 53.1 °F 34% 29.89 in 10.0 mi SE 4.6 mph - N/A   Clear
9:15 PM 83.8 °F 82.4 °F 53.8 °F 35% 29.90 in 10.0 mi SE 4.6 mph - N/A   Clear
9:35 PM 82.9 °F 81.9 °F 54.5 °F 37% 29.91 in 10.0 mi SE 4.6 mph - N/A   Clear
9:55 PM 82.9 °F 82.0 °F 55.2 °F 38% 29.92 in 10.0 mi SE 5.8 mph - N/A   Clear
10:15 PM 82.4 °F 81.8 °F 56.1 °F 40% 29.92 in 10.0 mi SE 4.6 mph - N/A   Clear
10:35 PM 81.9 °F 81.6 °F 56.7 °F 42% 29.92 in 10.0 mi ESE 4.6 mph - N/A   Clear
10:55 PM 81.0 °F 81.0 °F 57.2 °F 44% 29.92 in 10.0 mi ESE 4.6 mph - N/A   Clear
11:15 PM 80.4 °F 80.7 °F 57.6 °F 45% 29.93 in 10.0 mi SE 4.6 mph - N/A   Clear
11:35 PM 79.7 °F - 58.1 °F 47% 29.92 in 10.0 mi ESE 4.6 mph - N/A   Clear
11:55 PM 79.2 °F - 58.3 °F 49% 29.92 in 10.0 mi ESE 4.6 mph - N/A   Clear